Regional Weather Roundup
Issued by NWS

Home | Current Version | Previous Version | Text Only | Print | Product List | Glossary Off
Versions: 1 2 3 4 5 6 7 8 9 10 11 12 13 14 15 16 17 18 19 20 21 22 23 24 25 26 27 28 29 30 31 32 33 34 35 36 37 38 39 40 41 42 43 44 45 46 47 48 49 50

000
ASUS43 KMKX 241121
RWRWI

WISCONSIN REGIONAL WEATHER ROUNDUP
NATIONAL WEATHER SERVICE MILWAUKEE/SULLIVAN WI
600 AM CDT MON APR 24 2017

NOTE: "FAIR" INDICATES FEW OR NO CLOUDS BELOW 12,000 FEET WITH NO
SIGNIFICANT WEATHER AND/OR OBSTRUCTIONS TO VISIBILITY.

WIZ001-002-006>008-014>016-023>028-241200-
NORTHWEST WISCONSIN

CITY           SKY/WX    TMP DP  RH WIND       PRES   REMARKS
SUPERIOR ARPT  CLOUDY    34  29  82 E17       29.94F WCI  24
ASHLAND        MOCLDY    34  27  75 NE9       29.97F WCI  27
HAYWARD        PTCLDY    36  30  79 E5        29.91F WCI  32
SIREN          CLOUDY    37  33  88 CALM      29.87S
CUMBERLAND     CLOUDY    36  34  93 SE9       29.88F WCI  29
RICE LAKE      CLOUDY    39  35  84 SE13G20   29.91R WCI  32
CHETEK         CLOUDY    38  35  90 SE5       29.90F WCI  34
LADYSMITH      PTCLDY    36  31  83 E6        29.93F WCI  31
EAU CLAIRE     CLEAR     40  34  79 SE6       29.90F
MENOMONIE      CLEAR     41  37  87 E8        29.90S
NEW RICHMOND   PTCLDY    43  38  83 SE10      29.85S
OSCEOLA        CLOUDY    45  40  81 E6        29.86F
$$

WIZ003>005-009-010-017-018-241200-
NORTH CENTRAL WISCONSIN

CITY           SKY/WX    TMP DP  RH WIND       PRES   REMARKS
MANITOWISH WTR PTCLDY    31  20  63 SE6       29.96F WCI  25
ARBOR VITAE    CLOUDY    32  22  66 SE8       29.95F WCI  25
WOODRUFF       CLOUDY    32  22  66 SE8       29.95F WCI  25
RHINELANDER    CLOUDY    33  23  66 SE10      29.98F WCI  25
EAGLE RIVER    PTCLDY    30  19  65 SE7       29.98F WCI  23
LAND O LAKES   PTCLDY    30  19  63 SE7       30.00S WCI  23
PHILLIPS       CLOUDY    32  27  80 SE7       29.94S WCI  26
TOMAHAWK       CLOUDY    31  24  75 CALM      29.98F
MEDFORD        CLEAR     32  28  86 E7        29.94F WCI  25
MERRILL        CLEAR     31  26  80 E5        29.99F WCI  26
$$

WIZ029-030-035-036-043>047-241200-
CENTRAL WISCONSIN

CITY           SKY/WX    TMP DP  RH WIND       PRES   REMARKS
WAUSAU         CLEAR     31  26  82 E9        29.98S WCI  23
MOSINEE        MOCLDY    32  28  86 E6        29.99F WCI  26
MARSHFIELD     CLOUDY    33  28  81 SE9       29.95F WCI  25
STEVENS POINT  PTCLDY    32  29  87 E7        30.00S WCI  26
WAUPACA        PTCLDY    35  29  78 E3        30.03R
WAUTOMA        CLOUDY    33  29  85 NE3       30.02R
WISC RAPIDS    PTCLDY    33  28  81 E6        29.99F WCI  28
CAMP DOUGLAS   PTCLDY    35  31  87 SE7       29.97F WCI  29
$$

WIZ011>013-019>022-031-037>040-048>050-241200-
NORTHEAST WISCONSIN

CITY           SKY/WX    TMP DP  RH WIND       PRES   REMARKS
ANTIGO         PTCLDY    29  24  83 E12       30.01R WCI  19
SHAWANO        PTCLDY    35  30  81 NE6       30.04S WCI  30
OCONTO         PTCLDY    34  30  85 CALM      30.04F
STURGEON BAY   CLOUDY    35  31  85 VRB5      30.04F WCI  31
GREEN BAY      CLEAR     35  32  88 NE5       30.03F WCI  31
MANITOWOC      CLEAR     34  31  88 CALM      30.03F
APPLETON       PTCLDY    36  27  69 NE5       30.00S WCI  32
CLINTONVILLE   PTCLDY    32  30  93 CALM      30.03S
OSHKOSH        PTCLDY    38  32  79 SE6       30.01S WCI  33
$$

WIZ032>034-041-042-053>061-241200-
SOUTHWEST WISCONSIN

CITY           SKY/WX    TMP DP  RH WIND       PRES   REMARKS
LA CROSSE      CLEAR     46  39  76 E10       29.92S
SPARTA         CLOUDY    37  35  93 E5        29.96F WCI  33
VIROQUA        CLEAR     40  38  93 E12       29.94S WCI  33
BOSCOBEL       CLEAR     44  40  85 NE5       29.96F
PRAIRIE DU CHI CLEAR     43  37  78 E7        29.93S
PLATTEVILLE    CLEAR     42  35  75 E7        29.97S
$$

WIZ056-057-062-063-064-067-068-241200-
SOUTH CENTRAL WISCONSIN

CITY           SKY/WX    TMP DP  RH WIND       PRES   REMARKS
REEDSBURG      PTCLDY    35  35  99 E3        29.98S
BARABOO/DELLS  PTCLDY    35  32  90 E5        29.99R WCI  31
LONE ROCK      CLEAR     38  35  89 E7        29.98S WCI  33
MINERAL POINT  CLEAR     45  36  70 E7        29.97S
MADISON        PTCLDY    36  32  85 E5        30.00S WCI  32
MIDDLETON      CLEAR     38  36  92 CALM      30.00S
WATERTOWN      CLOUDY    34  34 100 E3        30.00S
MONROE         CLEAR     37  36  93 E6        29.98S WCI  33
JANESVILLE     CLEAR     36  36 100 E3        30.00R
$$

WIZ051-052-058>065-066-070>072-241200-
SOUTHEAST WISCONSIN

CITY           SKY/WX    TMP DP  RH WIND       PRES   REMARKS
MILWAUKEE      CLOUDY    39  35  86 CALM      30.03S
WAUKESHA       CLEAR     34  30  86 E5        30.03S WCI  30
MILWAUKEE/TIMM PTCLDY    34  30  86 CALM      30.03S
RACINE         CLEAR     38  35  89 CALM      30.04S
KENOSHA        CLEAR     34  32  92 CALM      30.03R
FOND DU LAC    PTCLDY    36  28  73 E5        30.01F WCI  32
SHEBOYGAN      CLEAR     34  30  85 NE3       30.03S
WEST BEND      CLOUDY    32  32 100 CALM      30.02S
JUNEAU         CLOUDY    34  32  91 E3        30.02R
$$

LSZ147-162-241200-
LAKE SUPERIOR

STATION/POSITION TIME  TEMP    WIND        PRES    WAVE
                       AIR SEA DIR/SP/G            HT/PER
                 (UTC) (F)     (DEG/KT/KT) (MB)    (FT/S)
DEVILS ISLAND    1100   34      80/ 26/ 29 1016.8F
SAXON HARBOR     1030   36      60/  7/  8 1014.9F
$$

LMZ867-665-643>646-241200-
LAKE MICHIGAN

STATION/POSITION TIME  TEMP    WIND        PRES    WAVE
                       AIR SEA DIR/SP/G            HT/PER
                 (UTC) (F)     (DEG/KT/KT) (MB)    (FT/S)
CHAMBERS ISLAND  1040   36      40/  9/ 12 1017.3F
N MID LAKE BUOY  1050   36 37   80/ 14/ 17 1019.2F   3/ 4
NORTHPORT PIER   1040   36      80/ 13/ 16 1017.9F
KEWAUNEE LAKESHO 1054   38      60/  5/  8 1016.4F
SHEBOYGAN LAKESH 1100   40      30/  4/  5 1017.3S
PORT WASHINGTON  1040   38      20/  4/  6 1017.9S
MILWAUKEE LAKESH 1100   40      20/  5/  6   N/A
S MID LAKE BUOY  1050   42 40   50/  6/  8 1017.1F   2/ 6
KENOSHA   LAKESH 1100   40     310/  3/  4 1016.9
$$

TC  - TEMPERATURE IN CELSIUS
VSB - VISIBILITY IN STATUTE MILES
WCI - WIND CHILL INDEX
HX  - HEAT INDEX





USA.gov is the U.S. government's official web portal to all federal, state and local government web resources and services.